Medicine Lodge, KS

8:13 PM CST on February 11, 2016 (GMT -0600)
Medicine Lodge

Weather History for KP28 - April, 2013

Change the Weather History Date:

Tuesday, April 2, 2013

  Actual Average Record
Temperature  
Mean Temperature 36 °F 52 °F  
Max Temperature 39 °F 64 °F 92 °F (1913)
Min Temperature 32 °F 39 °F 15 °F (1936)
Degree Days  
Heating Degree Days 29 13  
Month to date heating degree days 50 27  
Since 1 July heating degree days 4012 4124  
Cooling Degree Days 0 0  
Month to date cooling degree days 0 0  
Year to date cooling degree days 1 2  
Moisture  
Dew Point 29 °F    
Average Humidity 78    
Maximum Humidity 92    
Minimum Humidity 64    
Precipitation  
Precipitation 0.20 in 0.06 in 1.12 in (1988)
Month to date precipitation 0.21 0.13  
Year to date precipitation 6.17 4.14  
Snow  
Snow 0.00 in 0.00 in - ()
Month to date snowfall 0.0 0.0  
Since 1 July snowfall 25.0 8.5  
Snow Depth 0.00 in    
Sea Level Pressure  
Sea Level Pressure 30.26 in    
Wind  
Wind Speed 9 mph (ENE)    
Max Wind Speed 17 mph    
Max Gust Speed 21 mph    
T = Trace of Precipitation, MM = Missing Value Source: NWS Daily Summary

Daily Weather History Graph

Daily Weather History Graph

Search for Another Location

Airport or City:

Trip Planner

Search our weather history database for the weather conditions in past years. The results will help you decide how hot, cold, wet, or windy it might be!

Date:

Astronomy

Apr. 02, 2013 Rise Set
Actual Time 7:17 AM CDT 7:58 PM CDT
Civil Twilight 6:51 AM CDT 8:24 PM CDT
Nautical Twilight 6:20 AM CDT 8:55 PM CDT
Astronomical Twilight 5:48 AM CDT 9:27 PM CDT
Moon 1:58 AM CDT (4/2) 12:15 PM CDT (4/2)
Length of Visible Light 13h 32m
Length of Day
12h 40m
Waning Gibbous, 55% of the Moon is Illuminated
Apr 2
Waning Gibbous
Apr 2
Last Quarter
Apr 10
New
Apr 18
First Quarter
Apr 25
Full

Hourly Weather History & Observations

Time (CDT) Temp. Windchill Dew Point Humidity Pressure Visibility Wind Dir Wind Speed Gust Speed Precip Events Conditions
12:56 AM 37.9 °F 32.7 °F 28.0 °F 68% 30.25 in - ENE 6.9 mph - N/A   Unknown
1:56 AM 37.9 °F 31.5 °F 27.0 °F 65% 30.25 in - ENE 9.2 mph - N/A   Unknown
2:56 AM 37.9 °F 31.5 °F 28.0 °F 68% 30.26 in - NE 9.2 mph - N/A   Unknown
3:56 AM 37.0 °F 29.3 °F 26.1 °F 65% 30.23 in - NE 11.5 mph - N/A   Unknown
4:56 AM 37.0 °F 28.5 °F 27.0 °F 67% 30.23 in - ENE 13.8 mph - N/A   Unknown
5:56 AM 34.0 °F 25.5 °F 28.0 °F 79% 30.24 in - East 11.5 mph - 0.06 in   Unknown
6:56 AM 33.1 °F 26.1 °F 28.9 °F 85% 30.26 in - ENE 8.1 mph - 0.03 in   Unknown
7:56 AM 32.0 °F 26.4 °F 30.0 °F 92% 30.26 in - East 5.8 mph - 0.06 in   Unknown
8:56 AM 32.0 °F 24.8 °F 30.0 °F 92% 30.28 in - ENE 8.1 mph - 0.03 in   Unknown
9:56 AM 33.1 °F 26.9 °F 30.9 °F 92% 30.28 in - ENE 6.9 mph - 0.02 in   Unknown
10:56 AM 34.0 °F 27.2 °F 30.9 °F 89% 30.30 in - NE 8.1 mph - N/A   Unknown
11:56 AM 34.0 °F 26.0 °F 30.9 °F 89% 30.30 in - NE 10.4 mph - N/A   Unknown
12:56 PM 35.1 °F 28.6 °F 30.9 °F 85% 30.30 in - NE 8.1 mph - N/A   Unknown
1:56 PM 36.0 °F 28.5 °F 30.0 °F 79% 30.29 in - ENE 10.4 mph - N/A   Unknown
2:56 PM 36.0 °F 26.7 °F 28.0 °F 73% 30.26 in - NE 15.0 mph - N/A   Unknown
3:56 PM 37.0 °F 29.3 °F 28.9 °F 73% 30.25 in - NE 11.5 mph - N/A   Unknown
4:56 PM 37.0 °F 30.4 °F 28.0 °F 70% 30.25 in - NE 9.2 mph - N/A   Unknown
5:56 PM 39.0 °F 33.4 °F 28.0 °F 65% 30.23 in - ENE 8.1 mph - N/A   Unknown
6:56 PM 39.0 °F 33.4 °F 28.0 °F 65% 30.23 in - ENE 8.1 mph - N/A   Unknown
7:56 PM 39.0 °F 34.8 °F 28.9 °F 67% 30.23 in - East 5.8 mph - N/A   Unknown
8:56 PM 39.0 °F 35.7 °F 28.9 °F 67% 30.22 in - NE 4.6 mph - N/A   Unknown
9:56 PM 39.0 °F 33.4 °F 28.0 °F 65% 30.24 in - ENE 8.1 mph - N/A   Unknown
10:56 PM 39.0 °F 35.7 °F 28.0 °F 65% 30.27 in - East 4.6 mph - N/A   Unknown
11:56 PM 37.9 °F 33.5 °F 28.0 °F 68% 30.25 in - NE 5.8 mph - N/A   Unknown